TimeCDT,TemperatureF,Dew PointF,Humidity,Sea Level PressureIn,VisibilityMPH,Wind Direction,Wind SpeedMPH,Gust SpeedMPH,PrecipitationIn,Events,Conditions,WindDirDegrees,DateUTC
12:35 AM,30.2,26.6,86,30.04,10.0,Calm,Calm,-,N/A,,Clear,0,2011-10-22 05:35:00
12:55 AM,30.2,26.6,86,30.04,10.0,Calm,Calm,-,N/A,,Clear,0,2011-10-22 05:55:00
1:15 AM,28.4,26.6,93,30.04,10.0,Calm,Calm,-,N/A,,Clear,0,2011-10-22 06:15:00
1:35 AM,28.4,26.6,93,30.04,10.0,Calm,Calm,-,N/A,,Clear,0,2011-10-22 06:35:00
2:15 AM,28.4,24.8,86,30.04,5.0,Calm,Calm,-,N/A,,Clear,0,2011-10-22 07:15:00
2:34 AM,28.4,26.6,93,30.05,5.0,Calm,Calm,-,N/A,,Clear,0,2011-10-22 07:34:00
2:55 AM,28.4,24.8,86,30.05,7.0,Calm,Calm,-,N/A,,Clear,0,2011-10-22 07:55:00
3:15 AM,28.4,24.8,86,30.05,7.0,Calm,Calm,-,N/A,,Clear,0,2011-10-22 08:15:00
3:34 AM,26.6,24.8,93,30.05,7.0,Calm,Calm,-,N/A,,Clear,0,2011-10-22 08:34:00
3:55 AM,26.6,24.8,93,30.05,4.0,Calm,Calm,-,N/A,,Clear,0,2011-10-22 08:55:00
4:15 AM,26.6,24.8,93,30.05,7.0,Calm,Calm,-,N/A,,Clear,0,2011-10-22 09:15:00
4:34 AM,28.4,26.6,93,30.05,7.0,Calm,Calm,-,N/A,,Clear,0,2011-10-22 09:34:00
4:55 AM,26.6,24.8,93,30.05,5.0,Calm,Calm,-,N/A,,Clear,0,2011-10-22 09:55:00
5:34 AM,26.6,24.8,93,30.06,5.0,Calm,Calm,-,N/A,,Clear,0,2011-10-22 10:34:00
6:34 AM,24.8,21.2,86,30.07,4.0,Calm,Calm,-,N/A,,Clear,0,2011-10-22 11:34:00
6:55 AM,26.6,21.2,80,30.08,3.0,Calm,Calm,-,N/A,,Clear,0,2011-10-22 11:55:00
7:15 AM,24.8,21.2,86,30.08,5.0,Calm,Calm,-,N/A,,Clear,0,2011-10-22 12:15:00
7:35 AM,24.8,21.2,86,30.08,4.0,Calm,Calm,-,N/A,,Clear,0,2011-10-22 12:35:00
7:55 AM,24.8,21.2,86,30.08,4.0,Calm,Calm,-,N/A,,Clear,0,2011-10-22 12:55:00
8:15 AM,24.8,21.2,86,30.08,4.0,Calm,Calm,-,N/A,,Clear,0,2011-10-22 13:15:00
8:35 AM,24.8,21.2,86,30.09,5.0,Calm,Calm,-,N/A,,Clear,0,2011-10-22 13:35:00
8:55 AM,28.4,24.8,86,30.09,7.0,Calm,Calm,-,N/A,,Clear,0,2011-10-22 13:55:00
9:14 AM,32.0,28.4,87,30.08,7.0,Calm,Calm,-,N/A,,Clear,0,2011-10-22 14:14:00
9:35 AM,37.4,35.6,93,30.08,7.0,Calm,Calm,-,N/A,,Clear,0,2011-10-22 14:35:00
9:55 AM,39.2,35.6,87,30.08,10.0,Calm,Calm,-,N/A,,Clear,0,2011-10-22 14:55:00
10:14 AM,42.8,37.4,81,30.08,10.0,Calm,Calm,-,N/A,,Clear,0,2011-10-22 15:14:00
10:35 AM,44.6,37.4,76,30.07,10.0,SSE,4.6,-,N/A,,Clear,160,2011-10-22 15:35:00
10:55 AM,48.2,39.2,71,30.07,10.0,South,5.8,-,N/A,,Clear,170,2011-10-22 15:55:00
11:14 AM,50.0,37.4,62,30.06,10.0,Calm,Calm,-,N/A,,Clear,0,2011-10-22 16:14:00
11:35 AM,51.8,37.4,58,30.05,10.0,South,4.6,-,N/A,,Clear,180,2011-10-22 16:35:00
11:55 AM,53.6,37.4,54,30.05,10.0,South,10.4,-,N/A,,Clear,190,2011-10-22 16:55:00
12:14 PM,55.4,35.6,47,30.04,10.0,Calm,Calm,-,N/A,,Clear,0,2011-10-22 17:14:00
12:35 PM,55.4,37.4,51,30.03,10.0,Calm,Calm,-,N/A,,Clear,0,2011-10-22 17:35:00
1:14 PM,57.2,35.6,44,30.01,10.0,South,12.7,20.7,N/A,,Clear,190,2011-10-22 18:14:00
1:35 PM,57.2,35.6,44,30.00,10.0,South,13.8,18.4,N/A,,Clear,190,2011-10-22 18:35:00
1:55 PM,59.0,35.6,42,29.99,10.0,South,16.1,21.9,N/A,,Clear,190,2011-10-22 18:55:00
2:14 PM,60.8,37.4,42,29.97,10.0,South,15.0,23.0,N/A,,Clear,190,2011-10-22 19:14:00
2:35 PM,60.8,37.4,42,29.97,10.0,SSW,15.0,21.9,N/A,,Clear,210,2011-10-22 19:35:00
2:55 PM,60.8,35.6,39,29.96,10.0,SSW,13.8,23.0,N/A,,Clear,200,2011-10-22 19:55:00
3:14 PM,60.8,35.6,39,29.95,10.0,South,12.7,23.0,N/A,,Clear,190,2011-10-22 20:14:00
3:35 PM,60.8,35.6,39,29.94,10.0,South,18.4,-,N/A,,Clear,190,2011-10-22 20:35:00
3:55 PM,60.8,35.6,39,29.93,10.0,SSW,17.3,-,N/A,,Scattered Clouds,200,2011-10-22 20:55:00
4:14 PM,57.2,35.6,44,29.93,10.0,South,17.3,24.2,N/A,,Scattered Clouds,190,2011-10-22 21:14:00
4:35 PM,59.0,35.6,42,29.92,10.0,South,18.4,25.3,N/A,,Scattered Clouds,190,2011-10-22 21:35:00
4:55 PM,57.2,35.6,44,29.91,10.0,South,18.4,-,N/A,,Mostly Cloudy,180,2011-10-22 21:55:00
5:14 PM,55.4,35.6,47,29.90,10.0,South,15.0,-,N/A,,Mostly Cloudy,180,2011-10-22 22:14:00
5:35 PM,55.4,35.6,47,29.89,10.0,South,15.0,-,N/A,,Scattered Clouds,180,2011-10-22 22:35:00
5:55 PM,55.4,35.6,47,29.88,10.0,South,13.8,-,N/A,,Scattered Clouds,180,2011-10-22 22:55:00
6:14 PM,53.6,35.6,51,29.87,10.0,South,13.8,-,N/A,,Clear,180,2011-10-22 23:14:00
6:35 PM,53.6,35.6,51,29.86,10.0,South,15.0,-,N/A,,Clear,170,2011-10-22 23:35:00
6:55 PM,51.8,35.6,54,29.86,10.0,South,12.7,-,N/A,,Clear,170,2011-10-22 23:55:00
7:15 PM,50.0,35.6,58,29.85,10.0,South,11.5,-,N/A,,Clear,170,2011-10-23 00:15:00
7:35 PM,50.0,35.6,58,29.84,10.0,South,15.0,-,N/A,,Clear,170,2011-10-23 00:35:00
7:55 PM,50.0,35.6,58,29.83,10.0,South,15.0,-,N/A,,Clear,170,2011-10-23 00:55:00
8:15 PM,51.8,35.6,54,29.82,10.0,South,16.1,-,N/A,,Scattered Clouds,170,2011-10-23 01:15:00
8:35 PM,51.8,35.6,54,29.82,10.0,South,16.1,-,N/A,,Mostly Cloudy,170,2011-10-23 01:35:00
8:55 PM,51.8,37.4,58,29.81,10.0,South,16.1,21.9,N/A,,Mostly Cloudy,170,2011-10-23 01:55:00
9:15 PM,51.8,37.4,58,29.80,10.0,South,16.1,-,N/A,,Mostly Cloudy,170,2011-10-23 02:15:00
9:35 PM,50.0,37.4,62,29.79,10.0,South,15.0,-,N/A,,Overcast,170,2011-10-23 02:35:00
9:54 PM,50.0,41.0,71,29.79,10.0,South,18.4,21.9,N/A,Rain,Light Rain,180,2011-10-23 02:54:00
10:15 PM,48.2,42.8,82,29.78,10.0,South,20.7,31.1,0.03,Rain,Light Rain,180,2011-10-23 03:15:00
10:34 PM,48.2,42.8,82,29.78,10.0,South,15.0,-,0.03,,Overcast,170,2011-10-23 03:34:00
10:55 PM,48.2,42.8,82,29.77,10.0,South,17.3,-,0.03,Thunderstorm,Scattered Clouds,180,2011-10-23 03:55:00
11:15 PM,46.4,42.8,87,29.77,10.0,Calm,Calm,-,N/A,,Clear,0,2011-10-23 04:15:00
11:35 PM,46.4,42.8,87,29.77,10.0,South,10.4,-,N/A,,Clear,190,2011-10-23 04:35:00
11:55 PM,46.4,42.8,87,29.76,10.0,South,13.8,-,N/A,,Clear,190,2011-10-23 04:55:00